FW6376 Weather Reports


Display with metric or nautical units.
time (UTC)temp
F
wind
direction
speed
MPH
gust
MPH
rain 1hr
in
rain 24hr
in
rain mn
in
humidity
%
barometer
mb
20260904173013 78 323 2.0 9.0 0.00 0.01 0.01 44 1011.0
20260904171509 77 197 3.0 8.0 0.00 0.01 0.01 46 1011.2
20260904170007 77 115 2.0 9.0 0.00 0.01 0.01 46 1011.3
20260904164506 77 340 5.0 11.0 0.00 0.01 0.01 48 1011.1
20260904163003 77 74 2.0 5.0 0.00 0.01 0.01 53 1011.3
20260904161608 75 257 2.0 6.0 0.00 0.01 0.01 59 1011.4
20260904160100 75 196 2.0 6.0 0.00 0.01 0.01 60 1011.6
20260904154558 75 355 1.0 9.0 0.00 0.01 0.01 60 1011.5
20260904153112 74 199 2.0 6.0 0.00 0.01 0.01 61 1011.7
20260904151550 75 196 0.0 3.0 0.00 0.01 0.01 61 1011.8
20260904150046 74 184 0.0 2.0 0.00 0.01 0.01 64 1012.0
20260904144542 73 280 0.0 3.0 0.00 0.01 0.01 69 1011.9
20260904143038 71 337 0.0 3.0 0.00 0.01 0.01 72 1012.0
20260904141540 70 78 0.0 2.0 0.00 0.01 0.01 73 1012.1
20260904140035 68 11 0.0 4.0 0.00 0.01 0.01 76 1012.0
20260904134533 67 126 0.0 2.0 0.00 0.01 0.01 78 1012.0
20260904133023 65 126 0.0 1.0 0.00 0.01 0.01 81 1012.2
20260904131521 64 126 0.0 2.0 0.00 0.01 0.01 82 1012.1
20260904130019 63 129 0.0 2.0 0.00 0.01 0.01 82 1012.2
20260904124515 62 128 1.0 2.0 0.00 0.01 0.01 82 1012.3
20260904123011 61 128 0.0 1.0 0.00 0.01 0.01 82 1012.4
20260904121510 62 128 0.0 2.0 0.00 0.01 0.01 82 1012.3
20260904120007 61 128 0.0 1.0 0.00 0.01 0.01 82 1012.3
20260904114507 61 128 0.0 0.0 0.00 0.01 0.01 82 1012.3
20260904113009 61 128 0.0 0.0 0.00 0.01 0.01 82 1012.2
20260904111505 61 128 0.0 0.0 0.00 0.01 0.01 82 1012.0
20260904110002 61 128 0.0 0.0 0.00 0.01 0.01 82 1011.8
20260904104501 61 128 0.0 0.0 0.00 0.01 0.01 82 1011.9
20260904103110 61 128 0.0 0.0 0.01 0.01 0.01 82 1011.7
20260904101559 60 128 0.0 0.0 0.01 0.01 0.01 82 1011.8
20260904100057 61 128 0.0 1.0 0.01 0.01 0.01 82 1011.9
20260904094557 61 128 0.0 1.0 0.01 0.01 0.01 82 1011.7
20260904093057 61 128 0.0 1.0 0.00 0.00 0.00 82 1011.7
20260904091608 61 128 0.0 0.0 0.00 0.00 0.00 82 1011.7
20260904090055 61 128 0.0 1.0 0.00 0.00 0.00 82 1011.5
20260904084555 61 128 0.0 0.0 0.00 0.00 0.00 82 1011.4
20260904083108 61 128 0.0 1.0 0.00 0.00 0.00 82 1011.5
20260904081553 61 128 0.0 0.0 0.00 0.00 0.00 82 1011.4
20260904080052 61 128 0.0 0.0 0.00 0.00 0.00 82 1011.5
20260904074605 61 128 0.0 2.0 0.00 0.00 0.00 82 1011.3
20260904073052 61 128 0.0 0.0 0.00 0.00 0.00 82 1011.4
20260904071549 61 128 0.0 0.0 0.00 0.00 0.00 82 1011.7
20260904070053 61 128 0.0 0.0 0.00 0.00 0.00 82 1011.6
20260904064548 60 128 0.0 0.0 0.00 0.07 0.00 82 1012.0
20260904063048 60 128 0.0 0.0 0.00 0.07 0.00 82 1012.0
20260904061545 60 128 0.0 0.0 0.00 0.07 0.00 82 1011.9
20260904060044 60 128 0.0 0.0 0.00 0.07 0.00 82 1012.0
20260904054542 59 128 0.0 0.0 0.00 0.08 0.00 82 1012.2
20260904053040 59 128 0.0 0.0 0.00 0.08 0.00 82 1012.4
20260904051539 59 128 0.0 0.0 0.00 0.08 0.00 82 1012.5
20260904050038 59 128 0.0 0.0 0.00 0.08 0.00 81 1012.6
20260904044536 60 128 0.0 0.0 0.00 0.08 0.00 82 1012.6
20260904043033 60 128 0.0 0.0 0.00 0.08 0.00 82 1012.7
20260904041535 60 128 0.0 0.0 0.00 0.08 0.00 82 1012.9
20260904040031 60 128 0.0 0.0 0.00 0.08 0.00 82 1012.9
20260904034531 61 128 0.0 0.0 0.00 0.08 0.08 81 1013.0
20260904033032 61 128 0.0 0.0 0.00 0.08 0.08 82 1012.8
20260904031529 62 128 0.0 0.0 0.00 0.08 0.08 82 1012.8
20260904030028 62 128 0.0 0.0 0.00 0.08 0.08 82 1012.6
20260904024528 62 128 0.0 0.0 0.00 0.08 0.08 81 1012.9
20260904023027 62 128 0.0 0.0 0.00 0.08 0.08 81 1012.9
20260904021535 62 128 0.0 0.0 0.00 0.08 0.08 81 1012.7
20260904020026 63 128 0.0 0.0 0.00 0.08 0.08 81 1012.7
20260904014528 63 128 0.0 1.0 0.00 0.08 0.08 81 1012.8
20260904013025 63 128 0.0 0.0 0.00 0.08 0.08 80 1012.9
20260904011525 64 128 0.0 0.0 0.00 0.08 0.08 80 1012.9
20260904010024 64 128 0.0 0.0 0.00 0.08 0.08 79 1012.8
20260904004523 65 128 0.0 0.0 0.00 0.08 0.08 78 1012.6
20260904003023 66 128 0.0 0.0 0.00 0.08 0.08 78 1012.3
20260904001526 66 128 0.0 0.0 0.00 0.08 0.08 76 1012.1
20260904000022 67 128 0.0 0.0 0.00 0.08 0.08 74 1011.8
20260903234521 68 128 0.0 0.0 0.00 0.08 0.08 74 1011.7
20260903233021 69 128 0.0 0.0 0.00 0.08 0.08 73 1011.5
20260903231521 70 115 0.0 1.0 0.00 0.08 0.08 73 1011.5
20260903230021 71 115 0.0 2.0 0.00 0.08 0.08 72 1011.7
20260903224519 72 34 1.0 3.0 0.00 0.08 0.08 71 1011.9
20260903223022 73 306 0.0 1.0 0.00 0.08 0.08 72 1011.9
20260903221523 74 306 0.0 3.0 0.00 0.08 0.08 70 1011.5
20260903220017 74 314 0.0 5.0 0.00 0.08 0.08 69 1011.7
20260903214515 75 298 0.0 3.0 0.00 0.08 0.08 68 1011.8
20260903213014 77 229 0.0 4.0 0.00 0.08 0.08 67 1011.8
20260903211514 77 32 0.0 3.0 0.00 0.08 0.08 67 1011.8
20260903210013 77 165 0.0 3.0 0.00 0.08 0.08 65 1011.8
20260903204514 76 223 0.0 3.0 0.00 0.08 0.08 64 1011.7
20260903203011 75 12 0.0 4.0 0.00 0.08 0.08 69 1012.0
20260903201510 76 321 0.0 2.0 0.00 0.08 0.08 67 1012.1
20260903200007 77 96 0.0 4.0 0.00 0.08 0.08 66 1012.2
20260903194505 77 82 1.0 4.0 0.00 0.08 0.08 63 1012.5
20260903193003 77 288 1.0 4.0 0.00 0.08 0.08 62 1012.7
20260903191559 75 82 0.0 9.0 0.00 0.08 0.08 65 1012.7
20260903190057 75 33 0.0 3.0 0.00 0.08 0.08 64 1012.8
20260903184555 75 279 1.0 4.0 0.00 0.08 0.08 65 1013.1
20260903183049 75 270 0.0 4.0 0.00 0.08 0.08 64 1013.2
20260903181545 73 129 1.0 5.0 0.00 0.08 0.08 71 1013.2
20260903180047 71 46 0.0 4.0 0.00 0.08 0.08 72 1013.4
20260903174537 70 355 1.0 2.0 0.00 0.08 0.08 73 1013.5